Location: Newark
(44.1667°N, 8.2500°E)
Time: 06:59:02
(UTC+00:00)

S-56A Canister/Altair - Pass Details

Date: 17 December 2019
Orbit: 634 x 2498 km, 38.9° (Epoch: 27 January)

Event Time Altitude Azimuth Distance (km) Brightness Sun altitude
Rises 12:15:50 0° 280° (W) 5,955 12.1 21.4°
Reaches altitude 10° 12:19:40 10° 276° (W) 5,062 11.9 21.2°
Maximum altitude 12:34:03 55° 205° (SSW) 2,812 11.5 20.5°
Drops below altitude 10° 12:47:06 10° 133° (SE) 4,615 11.9 19.8°
Sets 12:50:25 0° 129° (SE) 5,415 12.1 19.6°
